Volver al catálogo

DELTA 1 DEB

ActivoSSO
NORAD 7082·DEBRIS·🇺🇸 United States

Lanzado Nov 6, 1973 desde Vandenberg Space Force Base

Loading…

Próximos Pases (próximas 24 horas)

TLE

ActualizadoSource: Space-Track

Época: Sep 14, 2026, 02:43 UTC

1 07082U 73086CA  26257.11357642  .00000382  00000-0  23979-2 0  9997
2 07082 101.7815 133.8779 0028474 104.6174  52.7451 12.61981293419985

Sigue DELTA 1 DEB en tiempo real con AllMySat

Download on the App Store